This is the latest recevied weather packets stored in our database for station/object KM4KMS. If no packets are shown the sender has not sent any weather packets the latest 10 day(s).
| Time | Temp. | Humidity | Pressure | Rain* | Wind** | Luminosity | Snow |
|---|---|---|---|---|---|---|---|
| 1778079156 | 12.78° C | 76% | 1012.2 hPa | 0 mm | - | 784 W/m² | - |
| 1778078854 | 11.67° C | 79% | 1012.4 hPa | 0 mm | - | 667 W/m² | - |
| 1778078551 | 11.11° C | 79% | 1012.3 hPa | 0 mm | - | 637 W/m² | - |
| 1778078248 | 11.67° C | 81% | 1012.1 hPa | 0 mm | - | 401 W/m² | - |
| 1778077946 | 12.22° C | 79% | 1011.9 hPa | 0 mm | - | 372 W/m² | - |
| 1778077644 | 11.67° C | 78% | 1012 hPa | 0 mm | - | 454 W/m² | - |
| 1778077342 | 11.11° C | 80% | 1011.9 hPa | 0 mm | - | 455 W/m² | - |
| 1778077040 | 10.56° C | 84% | 1011.8 hPa | 0 mm | - | 465 W/m² | - |
| 1778076738 | 10.56° C | 82% | 1011.8 hPa | 0 mm | - | 411 W/m² | - |
| 1778076435 | 10.56° C | 82% | 1011.5 hPa | 0 mm | - | 435 W/m² | - |
| 1778076132 | 10° C | 84% | 1011.2 hPa | 0 mm | - | 420 W/m² | - |
| 1778075829 | 10° C | 85% | 1011.1 hPa | 0 mm | - | 341 W/m² | - |
| 1778075525 | 9.44° C | 87% | 1011 hPa | 0 mm | - | 263 W/m² | - |
| 1778075222 | 9.44° C | 86% | 1011.2 hPa | 0 mm | - | 177 W/m² | - |
| 1778074918 | 8.89° C | 87% | 1011.2 hPa | 0 mm | - | 139 W/m² | - |
| 1778074616 | 8.89° C | 85% | 1011.4 hPa | 0 mm | - | 144 W/m² | - |
| 1778074312 | 8.89° C | 88% | 1011.4 hPa | 0 mm | - | 141 W/m² | - |
| 1778074009 | 8.89° C | 89% | 1011.2 hPa | 0 mm | - | 146 W/m² | - |
| 1778073706 | 8.89° C | 89% | 1011.1 hPa | 0 mm | - | 148 W/m² | - |
| 1778073404 | 8.33° C | 90% | 1010.9 hPa | 0 mm | - | 137 W/m² | - |
| 1778073100 | 8.33° C | 90% | 1010.8 hPa | 0 mm | - | 121 W/m² | - |
| 1778072797 | 8.33° C | 90% | 1010.8 hPa | 0 mm | - | 115 W/m² | - |
| 1778072494 | 8.33° C | 91% | 1010.7 hPa | 0 mm | - | 115 W/m² | - |
| 1778072192 | 8.33° C | 91% | 1011 hPa | 0 mm | - | 120 W/m² | - |
| 1778071890 | 7.78° C | 92% | 1010.7 hPa | 0 mm | - | 104 W/m² | - |
* Rain latest hour (hover to see other rain measurements)
** Current wind speed in m/s (hover to see current wind gust speed)